Dumas, Arkansas, United States (71639)
Lat: 33.89N, Lon: 91.49W
Wx Zone: ARZ065
Local Info
Past Weather Observations for Wednesday, August 27, 2014

NOTE: This archive is for the closest National Weather Service station to Dumas. Information may differ from the station used for current weather conditions.

Click here for Long-term Archive

Time Weather Temperature Dewpoint Humidity Pressure Winds Precip Visibility
23:53
Clear
72°F / 22°C 70°F / 21°C 94% 30.04 in
(1017 mb)
Calm - 10SM
22:53
Clear
73°F / 23°C 70°F / 21°C 89% 30.04 in
(1017 mb)
Calm - 10SM
21:53
Clear
73°F / 23°C 70°F / 21°C 89% 30.01 in
(1016 mb)
Calm - 10SM
20:53
Clear
73°F / 23°C 70°F / 21°C 89% 30.01 in
(1016 mb)
Calm - 10SM
19:53
Clear
75°F / 24°C 70°F / 21°C 83% 30.01 in
(1016 mb)
Calm - 10SM
18:53
Clear
82°F / 28°C 70°F / 21°C 66% 29.98 in
(1015 mb)
Calm - 10SM
17:53
Clear
88°F / 31°C 68°F / 20°C 52% 30.01 in
(1016 mb)
Calm - 10SM
16:53
Clear
91°F / 33°C 63°F / 17°C 38% 30.01 in
(1016 mb)
Variable 3.5 mph
(Variable 6 kph)
- 10SM
15:53
Clear
91°F / 33°C 63°F / 17°C 38% 30.01 in
(1016 mb)
SE 5.8 mph
(SE 9 kph)
- 10SM
14:53
Clear
91°F / 33°C 63°F / 17°C 38% 30.04 in
(1017 mb)
Calm - 10SM
13:53
Partly Cloudy
91°F / 33°C 63°F / 17°C 38% 30.04 in
(1017 mb)
NNE 5.8 mph
(NNE 9 kph)
- 10SM
12:53
Clear
91°F / 33°C 63°F / 17°C 38% 30.06 in
(1018 mb)
Variable 4.6 mph
(Variable 7 kph)
- 10SM
11:53
Clear
91°F / 33°C 63°F / 17°C 38% 30.06 in
(1018 mb)
ENE 4.6 mph
(ENE 7 kph)
- 10SM
10:53
Clear
90°F / 32°C 66°F / 19°C 46% 30.09 in
(1019 mb)
Variable 3.5 mph
(Variable 6 kph)
- 10SM
09:53
Clear
86°F / 30°C 68°F / 20°C 55% 30.09 in
(1019 mb)
Calm - 10SM
08:53
Clear
82°F / 28°C 68°F / 20°C 62% 30.09 in
(1019 mb)
E 3.5 mph
(E 6 kph)
- 10SM
07:53
Clear
79°F / 26°C 68°F / 20°C 70% 30.06 in
(1018 mb)
ESE 4.6 mph
(ESE 7 kph)
- 10SM
06:53
Clear
73°F / 23°C 68°F / 20°C 83% 30.06 in
(1018 mb)
ENE 3.5 mph
(ENE 6 kph)
- 10SM
05:53
Clear
70°F / 21°C 66°F / 19°C 88% 30.06 in
(1018 mb)
Calm - 10SM
04:53
Clear
72°F / 22°C 66°F / 19°C 83% 30.04 in
(1017 mb)
Calm - 10SM
03:53
Partly Cloudy
72°F / 22°C 66°F / 19°C 83% 30.04 in
(1017 mb)
Calm - 10SM
02:53
Clear
70°F / 21°C 66°F / 19°C 88% 30.04 in
(1017 mb)
Calm - 10SM
01:53
Clear
72°F / 22°C 66°F / 19°C 83% 30.04 in
(1017 mb)
Calm - 10SM
00:53
Clear
72°F / 22°C 70°F / 21°C 94% 30.04 in
(1017 mb)
Calm - 10SM
Time Weather Temperature Dewpoint Humidity Pressure Winds Precip Visibility


Weather for websites

WeatherForYou.com, LLC is not responsible for any damages or problems caused by this service. Current weather conditions are obtained from the closest station including government and personal stations which may have varying degrees of accuracy. Weather forecasts are derived from the NOAA NDFD. Like all things, this site belongs to Jesus Christ... He just trusts me to maintain it. If you have any questions or comments email webmaster@weatherforyou.com

Copyright © 2014, WeatherForYou.com LLC. All rights reserved.